Location: Northcutt
(34.7304°N, 84.4305°W)
Time: 03:43:55
(UTC+00:00)

A-11 Canister half - Pass Details

Date: 04 October 2022
Orbit: 1524 x 1685 km, 47.3° (Epoch: 01 December)

Event Time Altitude Azimuth Distance (km) Brightness Sun altitude
Rises 01:20:53 0° 302° (WNW) 4,699 12.7 -25.8°
Reaches altitude 10° 01:24:03 10° 307° (NW) 3,730 11.9 -26.4°
Maximum altitude 01:33:14 53° 23° (NNE) 1,892 9.3 -28.2°
Enters shadow 01:35:47 43° 65° (ENE) 2,107 9.3 -28.7°
Drops below altitude 10° 01:42:42 10° 98° (E) 3,843 - -30.1°
Sets 01:46:00 0° 103° (ESE) 4,851 - -30.7°
